Wetterdaten: Woche 19.11.12 - 25.11.12 (KW47)
Datum Zeit Temp. Innen Temp. Aussen UV X Diff Temp. Feuchte Inne Feuchte Auss Sonnenschein Luftdruck Regen ab 0,1 Wind Sonnenschein T Regendauer Windben
19.11.2012 00:00 13,8 C 1,9 C 0,0 UV-I 0,0 C 58 % 93 % 0 % 1017,5 hPa 0,0 l/m 0,2 km/h (0 Bft) 0,00 h 0,00 h 0,8 km/h (0 Bft)
19.11.2012 01:00 13,7 C 2,0 C 0,0 UV-I 0,0 C 57 % 93 % 0 % 1017,0 hPa 0,0 l/m 0,7 km/h (0 Bft) 0,00 h 0,00 h 1,0 km/h (0 Bft)
19.11.2012 02:00 13,6 C 1,8 C 0,0 UV-I 0,0 C 57 % 93 % 0 % 1017,0 hPa 0,0 l/m 0,1 km/h (0 Bft) 0,00 h 0,00 h 0,1 km/h (0 Bft)
19.11.2012 03:00 13,6 C 1,6 C 0,0 UV-I 0,0 C 56 % 94 % 0 % 1016,5 hPa 0,0 l/m 0,0 km/h (0 Bft) 0,00 h 0,03 h 0,0 km/h (0 Bft)
19.11.2012 04:00 13,6 C 2,4 C 0,0 UV-I 0,0 C 57 % 94 % 0 % 1016,2 hPa 0,0 l/m 0,0 km/h (0 Bft) 0,00 h 0,00 h 0,0 km/h (0 Bft)
19.11.2012 05:00 13,7 C 3,0 C 0,0 UV-I 0,0 C 57 % 94 % 0 % 1015,9 hPa 0,0 l/m 0,0 km/h (0 Bft) 0,00 h 0,10 h 0,0 km/h (0 Bft)
19.11.2012 06:00 13,6 C 3,4 C 0,0 UV-I 0,0 C 57 % 94 % 0 % 1016,1 hPa 0,0 l/m 0,0 km/h (0 Bft) 0,00 h 0,00 h 0,0 km/h (0 Bft)
19.11.2012 07:00 13,7 C 4,0 C 0,0 UV-I 0,0 C 58 % 94 % 0 % 1015,8 hPa 0,0 l/m 0,3 km/h (0 Bft) 0,00 h 0,03 h 0,7 km/h (0 Bft)
19.11.2012 08:00 13,8 C 4,4 C 0,0 UV-I 0,0 C 58 % 98 % 0 % 1016,0 hPa 0,0 l/m 0,5 km/h (0 Bft) 0,00 h 0,00 h 1,6 km/h (1 Bft)
19.11.2012 09:00 13,8 C 4,8 C 0,0 UV-I 0,4 C 58 % 98 % 11 % 1015,7 hPa 0,1 l/m 1,4 km/h (1 Bft) 0,00 h 0,00 h 2,8 km/h (1 Bft)
19.11.2012 10:00 13,9 C 6,5 C 0,0 UV-I 1,2 C 59 % 99 % 35 % 1015,8 hPa 0,0 l/m 4,2 km/h (1 Bft) 0,00 h 0,00 h 7,4 km/h (2 Bft)
19.11.2012 11:00 14,3 C 8,4 C 0,3 UV-I 2,5 C 60 % 99 % 71 % 1015,6 hPa 0,0 l/m 6,2 km/h (2 Bft) 0,40 h 0,00 h 8,9 km/h (2 Bft)
19.11.2012 12:00 14,6 C 9,6 C 0,3 UV-I 2,4 C 61 % 99 % 69 % 1014,9 hPa 0,0 l/m 4,5 km/h (1 Bft) 0,17 h 0,00 h 5,9 km/h (2 Bft)
19.11.2012 13:00 14,9 C 10,7 C 0,2 UV-I 2,5 C 61 % 98 % 69 % 1014,5 hPa 0,0 l/m 6,1 km/h (2 Bft) 0,27 h 0,00 h 8,2 km/h (2 Bft)
19.11.2012 14:00 15,4 C 11,6 C 0,1 UV-I 1,6 C 61 % 96 % 47 % 1014,4 hPa 0,0 l/m 6,3 km/h (2 Bft) 0,27 h 0,00 h 8,2 km/h (2 Bft)
19.11.2012 15:00 15,6 C 11,5 C 0,0 UV-I 0,4 C 60 % 96 % 10 % 1014,1 hPa 0,0 l/m 4,1 km/h (1 Bft) 0,00 h 0,00 h 6,9 km/h (2 Bft)
19.11.2012 16:00 15,4 C 11,0 C 0,0 UV-I 0,0 C 61 % 95 % 0 % 1014,6 hPa 0,0 l/m 0,8 km/h (0 Bft) 0,00 h 0,00 h 1,3 km/h (1 Bft)
19.11.2012 17:00 15,1 C 10,4 C 0,0 UV-I 0,0 C 62 % 95 % 0 % 1014,8 hPa 0,0 l/m 4,8 km/h (1 Bft) 0,00 h 0,00 h 7,9 km/h (2 Bft)
19.11.2012 18:00 14,8 C 9,9 C 0,0 UV-I 0,0 C 63 % 94 % 0 % 1015,0 hPa 0,0 l/m 7,6 km/h (2 Bft) 0,00 h 0,00 h 10,8 km/h (2 Bft)
19.11.2012 19:00 14,6 C 9,2 C 0,0 UV-I 0,0 C 63 % 94 % 0 % 1015,3 hPa 0,0 l/m 7,1 km/h (2 Bft) 0,00 h 0,00 h 9,2 km/h (2 Bft)
19.11.2012 20:00 14,6 C 8,7 C 0,0 UV-I 0,0 C 63 % 95 % 0 % 1015,4 hPa 0,0 l/m 6,6 km/h (2 Bft) 0,00 h 0,00 h 9,4 km/h (2 Bft)
19.11.2012 21:00 14,6 C 8,9 C 0,0 UV-I 0,0 C 63 % 95 % 0 % 1015,7 hPa 0,0 l/m 6,9 km/h (2 Bft) 0,00 h 0,00 h 9,2 km/h (2 Bft)
19.11.2012 22:00 14,6 C 8,8 C 0,0 UV-I 0,0 C 63 % 95 % 0 % 1015,9 hPa 0,0 l/m 5,6 km/h (1 Bft) 0,00 h 0,00 h 7,5 km/h (2 Bft)
19.11.2012 23:00 14,6 C 8,5 C 0,0 UV-I 0,0 C 63 % 95 % 0 % 1016,3 hPa 0,0 l/m 5,0 km/h (1 Bft) 0,00 h 0,00 h 7,3 km/h (2 Bft)
20.11.2012 00:00 14,6 C 8,0 C 0,0 UV-I 0,0 C 63 % 95 % 0 % 1016,8 hPa 0,0 l/m 4,3 km/h (1 Bft) 0,00 h 0,00 h 6,8 km/h (2 Bft)
20.11.2012 01:00 14,6 C 7,4 C 0,0 UV-I 0,0 C 62 % 95 % 0 % 1016,5 hPa 0,0 l/m 5,2 km/h (1 Bft) 0,00 h 0,00 h 7,6 km/h (2 Bft)
20.11.2012 02:00 14,4 C 6,9 C 0,0 UV-I 0,0 C 62 % 95 % 0 % 1016,6 hPa 0,0 l/m 5,8 km/h (2 Bft) 0,00 h 0,00 h 7,9 km/h (2 Bft)
20.11.2012 03:00 14,4 C 6,6 C 0,0 UV-I 0,0 C 62 % 96 % 0 % 1016,6 hPa 0,0 l/m 5,6 km/h (1 Bft) 0,00 h 0,00 h 7,4 km/h (2 Bft)
20.11.2012 04:00 14,3 C 6,2 C 0,0 UV-I 0,0 C 61 % 96 % 0 % 1016,3 hPa 0,0 l/m 5,6 km/h (1 Bft) 0,00 h 0,00 h 8,0 km/h (2 Bft)
20.11.2012 05:00 14,2 C 5,8 C 0,0 UV-I 0,0 C 61 % 96 % 0 % 1016,6 hPa 0,0 l/m 6,0 km/h (2 Bft) 0,00 h 0,00 h 7,9 km/h (2 Bft)
20.11.2012 06:00 14,2 C 5,5 C 0,0 UV-I 0,0 C 61 % 96 % 0 % 1016,7 hPa 0,0 l/m 5,7 km/h (1 Bft) 0,00 h 0,00 h 8,4 km/h (2 Bft)
20.11.2012 07:00 14,1 C 5,4 C 0,0 UV-I 0,0 C 61 % 97 % 0 % 1017,0 hPa 0,0 l/m 7,1 km/h (2 Bft) 0,00 h 0,00 h 10,3 km/h (2 Bft)
20.11.2012 08:00 14,1 C 5,3 C 0,0 UV-I 0,0 C 60 % 97 % 0 % 1017,2 hPa 0,0 l/m 7,1 km/h (2 Bft) 0,00 h 0,00 h 10,9 km/h (2 Bft)
20.11.2012 09:00 14,1 C 5,8 C 0,0 UV-I 0,7 C 60 % 97 % 21 % 1017,4 hPa 0,0 l/m 8,6 km/h (2 Bft) 0,23 h 0,00 h 11,2 km/h (2 Bft)
20.11.2012 10:00 14,2 C 6,8 C 0,0 UV-I 2,8 C 60 % 96 % 76 % 1017,4 hPa 0,0 l/m 11,1 km/h (2 Bft) 0,80 h 0,00 h 15,6 km/h (3 Bft)
20.11.2012 11:00 14,3 C 8,5 C 0,1 UV-I 4,2 C 60 % 94 % 100 % 1017,4 hPa 0,0 l/m 12,9 km/h (3 Bft) 1,00 h 0,00 h 16,8 km/h (3 Bft)
20.11.2012 12:00 14,5 C 9,8 C 0,1 UV-I 4,3 C 60 % 90 % 100 % 1017,2 hPa 0,0 l/m 11,5 km/h (2 Bft) 1,00 h 0,00 h 15,7 km/h (3 Bft)
20.11.2012 13:00 15,1 C 10,5 C 0,2 UV-I 3,2 C 59 % 86 % 89 % 1017,0 hPa 0,0 l/m 11,7 km/h (2 Bft) 0,87 h 0,00 h 15,5 km/h (3 Bft)
20.11.2012 14:00 16,1 C 11,0 C 0,2 UV-I 3,0 C 57 % 82 % 85 % 1017,2 hPa 0,0 l/m 11,3 km/h (2 Bft) 1,00 h 0,00 h 15,9 km/h (3 Bft)
20.11.2012 15:00 16,6 C 10,1 C 0,0 UV-I 0,7 C 54 % 84 % 21 % 1016,4 hPa 0,0 l/m 8,7 km/h (2 Bft) 0,27 h 0,00 h 10,3 km/h (2 Bft)
20.11.2012 16:00 16,0 C 8,8 C 0,0 UV-I 0,0 C 55 % 87 % 0 % 1016,2 hPa 0,0 l/m 9,2 km/h (2 Bft) 0,00 h 0,00 h 11,9 km/h (2 Bft)
20.11.2012 17:00 15,3 C 7,4 C 0,0 UV-I 0,0 C 57 % 89 % 0 % 1016,4 hPa 0,0 l/m 8,1 km/h (2 Bft) 0,00 h 0,00 h 9,8 km/h (2 Bft)
20.11.2012 18:00 14,8 C 6,3 C 0,0 UV-I 0,0 C 57 % 91 % 0 % 1016,8 hPa 0,0 l/m 8,5 km/h (2 Bft) 0,00 h 0,00 h 11,3 km/h (2 Bft)
20.11.2012 19:00 14,5 C 5,6 C 0,0 UV-I 0,0 C 57 % 93 % 0 % 1016,9 hPa 0,0 l/m 9,4 km/h (2 Bft) 0,00 h 0,00 h 13,0 km/h (3 Bft)
20.11.2012 20:00 14,3 C 5,1 C 0,0 UV-I 0,0 C 57 % 93 % 0 % 1016,8 hPa 0,0 l/m 9,9 km/h (2 Bft) 0,00 h 0,00 h 13,4 km/h (3 Bft)
20.11.2012 21:00 14,2 C 5,1 C 0,0 UV-I 0,0 C 57 % 94 % 0 % 1016,8 hPa 0,0 l/m 11,0 km/h (2 Bft) 0,00 h 0,00 h 15,7 km/h (3 Bft)
20.11.2012 22:00 14,2 C 4,8 C 0,0 UV-I 0,0 C 57 % 95 % 0 % 1016,7 hPa 0,0 l/m 7,9 km/h (2 Bft) 0,00 h 0,00 h 11,2 km/h (2 Bft)
20.11.2012 23:00 14,1 C 4,6 C 0,0 UV-I 0,0 C 57 % 94 % 0 % 1016,6 hPa 0,0 l/m 9,6 km/h (2 Bft) 0,00 h 0,00 h 12,5 km/h (3 Bft)
21.11.2012 00:00 14,0 C 4,2 C 0,0 UV-I 0,0 C 57 % 95 % 0 % 1016,2 hPa 0,0 l/m 10,0 km/h (2 Bft) 0,00 h 0,00 h 14,5 km/h (3 Bft)
21.11.2012 01:00 14,0 C 4,1 C 0,0 UV-I 0,0 C 56 % 95 % 0 % 1015,7 hPa 0,0 l/m 8,2 km/h (2 Bft) 0,00 h 0,00 h 11,1 km/h (2 Bft)
21.11.2012 02:00 14,0 C 4,3 C 0,0 UV-I 0,0 C 56 % 95 % 0 % 1015,3 hPa 0,0 l/m 10,1 km/h (2 Bft) 0,00 h 0,00 h 13,7 km/h (3 Bft)
21.11.2012 03:00 14,0 C 4,3 C 0,0 UV-I 0,0 C 56 % 95 % 0 % 1014,9 hPa 0,0 l/m 9,9 km/h (2 Bft) 0,00 h 0,00 h 12,1 km/h (2 Bft)
21.11.2012 04:00 14,0 C 4,1 C 0,0 UV-I 0,0 C 56 % 95 % 0 % 1014,3 hPa 0,0 l/m 11,3 km/h (2 Bft) 0,00 h 0,00 h 16,3 km/h (3 Bft)
21.11.2012 05:00 13,9 C 3,9 C 0,0 UV-I 0,0 C 55 % 94 % 0 % 1014,1 hPa 0,0 l/m 13,0 km/h (3 Bft) 0,00 h 0,00 h 17,8 km/h (3 Bft)
21.11.2012 06:00 13,7 C 3,8 C 0,0 UV-I 0,0 C 55 % 94 % 0 % 1013,5 hPa 0,0 l/m 15,4 km/h (3 Bft) 0,00 h 0,00 h 22,3 km/h (4 Bft)
21.11.2012 07:00 13,6 C 4,0 C 0,0 UV-I 0,0 C 55 % 94 % 0 % 1013,4 hPa 0,0 l/m 14,3 km/h (3 Bft) 0,00 h 0,00 h 19,2 km/h (3 Bft)
21.11.2012 08:00 13,6 C 4,2 C 0,0 UV-I 0,0 C 55 % 94 % 0 % 1013,0 hPa 0,0 l/m 15,8 km/h (3 Bft) 0,00 h 0,00 h 20,5 km/h (4 Bft)
21.11.2012 09:00 13,7 C 4,3 C 0,0 UV-I 0,0 C 54 % 92 % 0 % 1012,6 hPa 0,0 l/m 15,5 km/h (3 Bft) 0,00 h 0,00 h 21,4 km/h (4 Bft)
21.11.2012 10:00 13,7 C 4,7 C 0,0 UV-I 0,0 C 55 % 92 % 0 % 1012,3 hPa 0,0 l/m 14,5 km/h (3 Bft) 0,00 h 0,00 h 19,6 km/h (3 Bft)
21.11.2012 11:00 13,8 C 5,4 C 0,0 UV-I 0,0 C 55 % 91 % 0 % 1012,0 hPa 0,0 l/m 14,6 km/h (3 Bft) 0,00 h 0,00 h 19,4 km/h (3 Bft)
21.11.2012 12:00 13,9 C 6,4 C 0,1 UV-I 0,0 C 54 % 89 % 1 % 1011,5 hPa 0,0 l/m 14,3 km/h (3 Bft) 0,00 h 0,00 h 18,5 km/h (3 Bft)
21.11.2012 13:00 14,2 C 6,9 C 0,1 UV-I 0,2 C 54 % 86 % 5 % 1011,2 hPa 0,0 l/m 14,6 km/h (3 Bft) 0,00 h 0,00 h 20,2 km/h (4 Bft)
21.11.2012 14:00 14,6 C 7,6 C 0,1 UV-I 1,1 C 53 % 85 % 32 % 1011,3 hPa 0,0 l/m 12,5 km/h (3 Bft) 0,10 h 0,00 h 16,5 km/h (3 Bft)
21.11.2012 15:00 14,9 C 7,3 C 0,0 UV-I 0,1 C 52 % 84 % 4 % 1011,3 hPa 0,0 l/m 10,6 km/h (2 Bft) 0,00 h 0,00 h 14,3 km/h (3 Bft)
21.11.2012 16:00 14,6 C 6,7 C 0,0 UV-I 0,0 C 52 % 86 % 0 % 1011,7 hPa 0,0 l/m 11,5 km/h (2 Bft) 0,00 h 0,23 h 14,1 km/h (3 Bft)
21.11.2012 17:00 14,2 C 6,3 C 0,0 UV-I 0,0 C 54 % 90 % 0 % 1012,6 hPa 0,4 l/m 5,6 km/h (1 Bft) 0,00 h 0,57 h 7,1 km/h (2 Bft)
21.11.2012 18:00 14,1 C 6,5 C 0,0 UV-I 0,0 C 56 % 92 % 0 % 1013,3 hPa 0,0 l/m 4,9 km/h (1 Bft) 0,00 h 0,00 h 7,6 km/h (2 Bft)
21.11.2012 19:00 14,1 C 7,7 C 0,0 UV-I 0,0 C 56 % 93 % 0 % 1013,7 hPa 0,0 l/m 3,7 km/h (1 Bft) 0,00 h 0,00 h 5,6 km/h (1 Bft)
21.11.2012 20:00 14,2 C 9,2 C 0,0 UV-I 0,0 C 58 % 91 % 0 % 1014,4 hPa 0,0 l/m 4,7 km/h (1 Bft) 0,00 h 0,00 h 6,3 km/h (2 Bft)
21.11.2012 21:00 14,2 C 10,1 C 0,0 UV-I 0,0 C 58 % 86 % 0 % 1014,6 hPa 0,0 l/m 9,4 km/h (2 Bft) 0,00 h 0,00 h 13,7 km/h (3 Bft)
21.11.2012 22:00 14,3 C 10,5 C 0,0 UV-I 0,0 C 58 % 83 % 0 % 1015,0 hPa 0,0 l/m 12,2 km/h (2 Bft) 0,00 h 0,00 h 16,3 km/h (3 Bft)
21.11.2012 23:00 14,3 C 10,4 C 0,0 UV-I 0,0 C 58 % 82 % 0 % 1015,7 hPa 0,0 l/m 12,5 km/h (3 Bft) 0,00 h 0,00 h 17,4 km/h (3 Bft)
22.11.2012 00:00 14,3 C 10,2 C 0,0 UV-I 0,0 C 58 % 83 % 0 % 1017,0 hPa 0,0 l/m 10,1 km/h (2 Bft) 0,00 h 0,00 h 13,8 km/h (3 Bft)
22.11.2012 01:00 14,2 C 9,9 C 0,0 UV-I 0,0 C 58 % 82 % 0 % 1018,1 hPa 0,0 l/m 8,5 km/h (2 Bft) 0,00 h 0,00 h 13,7 km/h (3 Bft)
22.11.2012 02:00 14,2 C 9,7 C 0,0 UV-I 0,0 C 58 % 83 % 0 % 1018,8 hPa 0,0 l/m 8,4 km/h (2 Bft) 0,00 h 0,00 h 12,1 km/h (2 Bft)
22.11.2012 03:00 14,3 C 8,6 C 0,0 UV-I 0,0 C 59 % 87 % 0 % 1019,7 hPa 0,0 l/m 5,3 km/h (1 Bft) 0,00 h 0,00 h 7,3 km/h (2 Bft)
22.11.2012 04:00 14,2 C 7,5 C 0,0 UV-I 0,0 C 59 % 90 % 0 % 1020,1 hPa 0,0 l/m 1,2 km/h (1 Bft) 0,00 h 0,00 h 2,2 km/h (1 Bft)
22.11.2012 05:00 14,2 C 6,9 C 0,0 UV-I 0,0 C 59 % 92 % 0 % 1020,5 hPa 0,0 l/m 1,0 km/h (0 Bft) 0,00 h 0,00 h 2,0 km/h (1 Bft)
22.11.2012 06:00 14,2 C 6,9 C 0,0 UV-I 0,0 C 59 % 92 % 0 % 1020,9 hPa 0,0 l/m 0,3 km/h (0 Bft) 0,00 h 0,00 h 0,4 km/h (0 Bft)
22.11.2012 07:00 14,2 C 7,1 C 0,0 UV-I 0,0 C 59 % 93 % 0 % 1021,0 hPa 0,0 l/m 0,4 km/h (0 Bft) 0,00 h 0,00 h 0,9 km/h (0 Bft)
22.11.2012 08:00 14,2 C 6,8 C 0,0 UV-I 0,0 C 59 % 93 % 0 % 1021,3 hPa 0,0 l/m 0,7 km/h (0 Bft) 0,00 h 0,00 h 2,0 km/h (1 Bft)
22.11.2012 09:00 14,2 C 7,4 C 0,0 UV-I 1,9 C 59 % 94 % 44 % 1021,5 hPa 0,0 l/m 3,3 km/h (1 Bft) 0,47 h 0,00 h 5,6 km/h (1 Bft)
22.11.2012 10:00 14,3 C 9,0 C 0,0 UV-I 6,7 C 59 % 91 % 100 % 1021,9 hPa 0,0 l/m 3,5 km/h (1 Bft) 1,00 h 0,00 h 5,6 km/h (1 Bft)
22.11.2012 11:00 14,4 C 11,1 C 0,3 UV-I 6,7 C 59 % 83 % 100 % 1021,7 hPa 0,0 l/m 4,9 km/h (1 Bft) 1,00 h 0,00 h 7,8 km/h (2 Bft)
22.11.2012 12:00 14,7 C 12,4 C 0,4 UV-I 5,8 C 58 % 73 % 100 % 1021,2 hPa 0,0 l/m 6,4 km/h (2 Bft) 1,00 h 0,00 h 9,9 km/h (2 Bft)
22.11.2012 13:00 15,2 C 13,0 C 0,4 UV-I 4,3 C 56 % 67 % 100 % 1021,2 hPa 0,0 l/m 7,1 km/h (2 Bft) 1,00 h 0,00 h 10,6 km/h (2 Bft)
22.11.2012 14:00 16,4 C 13,0 C 0,2 UV-I 4,9 C 51 % 64 % 100 % 1021,1 hPa 0,0 l/m 7,2 km/h (2 Bft) 1,00 h 0,00 h 11,8 km/h (2 Bft)
22.11.2012 15:00 16,7 C 11,8 C 0,0 UV-I 1,0 C 48 % 68 % 26 % 1020,1 hPa 0,0 l/m 5,5 km/h (1 Bft) 0,27 h 0,00 h 7,5 km/h (2 Bft)
22.11.2012 16:00 16,0 C 10,6 C 0,0 UV-I 0,0 C 50 % 73 % 0 % 1019,6 hPa 0,0 l/m 4,1 km/h (1 Bft) 0,00 h 0,00 h 6,9 km/h (2 Bft)
22.11.2012 17:00 15,2 C 9,0 C 0,0 UV-I 0,0 C 52 % 78 % 0 % 1019,6 hPa 0,0 l/m 5,9 km/h (2 Bft) 0,00 h 0,00 h 9,0 km/h (2 Bft)
22.11.2012 18:00 14,6 C 7,8 C 0,0 UV-I 0,0 C 53 % 83 % 0 % 1019,7 hPa 0,0 l/m 6,9 km/h (2 Bft) 0,00 h 0,00 h 11,1 km/h (2 Bft)
22.11.2012 19:00 14,3 C 7,1 C 0,0 UV-I 0,0 C 54 % 85 % 0 % 1019,4 hPa 0,0 l/m 6,7 km/h (2 Bft) 0,00 h 0,00 h 9,2 km/h (2 Bft)
22.11.2012 20:00 14,1 C 6,3 C 0,0 UV-I 0,0 C 55 % 86 % 0 % 1018,9 hPa 0,0 l/m 6,0 km/h (2 Bft) 0,00 h 0,00 h 8,6 km/h (2 Bft)
22.11.2012 21:00 14,1 C 5,7 C 0,0 UV-I 0,0 C 55 % 89 % 0 % 1018,7 hPa 0,0 l/m 8,4 km/h (2 Bft) 0,00 h 0,00 h 10,9 km/h (2 Bft)
22.11.2012 22:00 14,1 C 5,5 C 0,0 UV-I 0,0 C 55 % 91 % 0 % 1018,4 hPa 0,0 l/m 9,9 km/h (2 Bft) 0,00 h 0,00 h 12,1 km/h (2 Bft)
22.11.2012 23:00 13,9 C 5,4 C 0,0 UV-I 0,0 C 55 % 91 % 0 % 1017,9 hPa 0,0 l/m 9,9 km/h (2 Bft) 0,00 h 0,00 h 13,5 km/h (3 Bft)
23.11.2012 00:00 13,7 C 5,2 C 0,0 UV-I 0,0 C 55 % 93 % 0 % 1017,5 hPa 0,0 l/m 9,7 km/h (2 Bft) 0,00 h 0,00 h 12,7 km/h (3 Bft)
23.11.2012 01:00 13,4 C 5,3 C 0,0 UV-I 0,0 C 56 % 93 % 0 % 1017,4 hPa 0,0 l/m 9,2 km/h (2 Bft) 0,00 h 0,00 h 13,3 km/h (3 Bft)
23.11.2012 02:00 13,2 C 5,5 C 0,0 UV-I 0,0 C 57 % 94 % 0 % 1016,9 hPa 0,0 l/m 9,5 km/h (2 Bft) 0,00 h 0,00 h 12,5 km/h (3 Bft)
23.11.2012 03:00 13,2 C 5,8 C 0,0 UV-I 0,0 C 58 % 94 % 0 % 1016,2 hPa 0,0 l/m 9,4 km/h (2 Bft) 0,00 h 0,00 h 12,9 km/h (3 Bft)
23.11.2012 04:00 13,2 C 5,9 C 0,0 UV-I 0,0 C 58 % 94 % 0 % 1015,7 hPa 0,0 l/m 9,0 km/h (2 Bft) 0,00 h 0,00 h 12,9 km/h (3 Bft)
23.11.2012 05:00 13,1 C 5,9 C 0,0 UV-I 0,0 C 59 % 94 % 0 % 1015,2 hPa 0,0 l/m 9,2 km/h (2 Bft) 0,00 h 0,00 h 11,4 km/h (2 Bft)
23.11.2012 06:00 13,1 C 5,9 C 0,0 UV-I 0,0 C 59 % 94 % 0 % 1014,7 hPa 0,0 l/m 7,7 km/h (2 Bft) 0,00 h 0,00 h 10,6 km/h (2 Bft)
23.11.2012 07:00 13,0 C 6,3 C 0,0 UV-I 0,0 C 59 % 94 % 0 % 1014,5 hPa 0,0 l/m 9,9 km/h (2 Bft) 0,00 h 0,00 h 14,1 km/h (3 Bft)
23.11.2012 08:00 12,9 C 6,7 C 0,0 UV-I 0,0 C 59 % 93 % 0 % 1014,3 hPa 0,0 l/m 12,0 km/h (2 Bft) 0,00 h 0,00 h 16,4 km/h (3 Bft)
23.11.2012 09:00 13,1 C 7,2 C 0,0 UV-I 0,0 C 60 % 92 % 0 % 1014,3 hPa 0,0 l/m 12,9 km/h (3 Bft) 0,00 h 0,00 h 19,1 km/h (3 Bft)
23.11.2012 10:00 13,2 C 7,7 C 0,0 UV-I 0,0 C 60 % 91 % 0 % 1014,9 hPa 0,0 l/m 8,0 km/h (2 Bft) 0,00 h 0,00 h 10,7 km/h (2 Bft)
23.11.2012 11:00 13,4 C 8,3 C 0,0 UV-I 0,0 C 60 % 90 % 0 % 1014,8 hPa 0,0 l/m 7,0 km/h (2 Bft) 0,00 h 0,00 h 9,7 km/h (2 Bft)
23.11.2012 12:00 13,7 C 8,5 C 0,0 UV-I 0,0 C 60 % 90 % 0 % 1014,6 hPa 0,0 l/m 9,9 km/h (2 Bft) 0,00 h 0,53 h 13,2 km/h (3 Bft)
23.11.2012 13:00 14,0 C 8,3 C 0,0 UV-I 0,0 C 60 % 92 % 0 % 1014,3 hPa 1,6 l/m 6,5 km/h (2 Bft) 0,00 h 1,00 h 8,1 km/h (2 Bft)
23.11.2012 14:00 13,9 C 8,3 C 0,0 UV-I 0,0 C 61 % 93 % 0 % 1014,6 hPa 1,2 l/m 0,3 km/h (0 Bft) 0,00 h 1,00 h 1,1 km/h (1 Bft)
23.11.2012 15:00 14,1 C 8,4 C 0,0 UV-I 0,0 C 62 % 94 % 0 % 1015,2 hPa 1,4 l/m 0,7 km/h (0 Bft) 0,00 h 0,77 h 1,4 km/h (1 Bft)
23.11.2012 16:00 14,1 C 8,4 C 0,0 UV-I 0,0 C 63 % 95 % 0 % 1015,5 hPa 1,5 l/m 0,9 km/h (0 Bft) 0,00 h 0,50 h 1,4 km/h (1 Bft)
23.11.2012 17:00 14,1 C 8,3 C 0,0 UV-I 0,0 C 63 % 95 % 0 % 1016,0 hPa 0,7 l/m 0,4 km/h (0 Bft) 0,00 h 1,00 h 0,7 km/h (0 Bft)
23.11.2012 18:00 14,1 C 8,3 C 0,0 UV-I 0,0 C 63 % 96 % 0 % 1016,4 hPa 1,1 l/m 0,1 km/h (0 Bft) 0,00 h 1,00 h 0,1 km/h (0 Bft)
23.11.2012 19:00 14,2 C 8,3 C 0,0 UV-I 0,0 C 64 % 96 % 0 % 1016,6 hPa 0,5 l/m 0,0 km/h (0 Bft) 0,00 h 0,80 h 0,2 km/h (0 Bft)
23.11.2012 20:00 14,2 C 8,1 C 0,0 UV-I 0,0 C 64 % 96 % 0 % 1016,7 hPa 0,4 l/m 0,0 km/h (0 Bft) 0,00 h 0,70 h 0,0 km/h (0 Bft)
23.11.2012 21:00 14,2 C 7,9 C 0,0 UV-I 0,0 C 64 % 97 % 0 % 1016,9 hPa 0,9 l/m 0,0 km/h (0 Bft) 0,00 h 0,97 h 0,0 km/h (0 Bft)
23.11.2012 22:00 14,1 C 8,0 C 0,0 UV-I 0,0 C 64 % 97 % 0 % 1016,8 hPa 0,7 l/m 0,4 km/h (0 Bft) 0,00 h 0,80 h 0,8 km/h (0 Bft)
23.11.2012 23:00 14,2 C 8,0 C 0,0 UV-I 0,0 C 64 % 97 % 0 % 1016,9 hPa 0,2 l/m 0,3 km/h (0 Bft) 0,00 h 0,50 h 0,4 km/h (0 Bft)
24.11.2012 00:00 14,3 C 7,9 C 0,0 UV-I 0,0 C 64 % 97 % 0 % 1016,9 hPa 0,4 l/m 0,0 km/h (0 Bft) 0,00 h 0,57 h 0,5 km/h (0 Bft)
24.11.2012 01:00 14,3 C 7,9 C 0,0 UV-I 0,0 C 64 % 97 % 0 % 1016,8 hPa 0,0 l/m 0,0 km/h (0 Bft) 0,00 h 0,13 h 0,5 km/h (0 Bft)
24.11.2012 02:00 14,4 C 7,8 C 0,0 UV-I 0,0 C 64 % 97 % 0 % 1016,8 hPa 0,5 l/m 0,1 km/h (0 Bft) 0,00 h 0,80 h 0,0 km/h (0 Bft)
24.11.2012 03:00 14,4 C 7,9 C 0,0 UV-I 0,0 C 64 % 97 % 0 % 1017,1 hPa 0,0 l/m 0,0 km/h (0 Bft) 0,00 h 0,13 h 0,0 km/h (0 Bft)
24.11.2012 04:00 14,4 C 7,8 C 0,0 UV-I 0,0 C 64 % 97 % 0 % 1016,9 hPa 0,1 l/m 0,0 km/h (0 Bft) 0,00 h 0,10 h 0,0 km/h (0 Bft)
24.11.2012 05:00 14,3 C 7,7 C 0,0 UV-I 0,0 C 64 % 98 % 0 % 1017,0 hPa 0,0 l/m 0,0 km/h (0 Bft) 0,00 h 0,00 h 0,0 km/h (0 Bft)
24.11.2012 06:00 14,3 C 7,8 C 0,0 UV-I 0,0 C 64 % 98 % 0 % 1017,0 hPa 0,0 l/m 0,0 km/h (0 Bft) 0,00 h 0,00 h 0,0 km/h (0 Bft)
24.11.2012 07:00 14,4 C 7,8 C 0,0 UV-I 0,0 C 64 % 98 % 0 % 1017,2 hPa 0,0 l/m 0,0 km/h (0 Bft) 0,00 h 0,00 h 0,0 km/h (0 Bft)
24.11.2012 08:00 14,5 C 7,8 C 0,0 UV-I 0,0 C 64 % 98 % 0 % 1017,3 hPa 0,0 l/m 0,0 km/h (0 Bft) 0,00 h 0,00 h 0,0 km/h (0 Bft)
24.11.2012 09:00 14,4 C 8,0 C 0,0 UV-I 0,0 C 64 % 98 % 1 % 1017,5 hPa 0,0 l/m 0,0 km/h (0 Bft) 0,00 h 0,00 h 0,0 km/h (0 Bft)
24.11.2012 10:00 14,6 C 8,5 C 0,0 UV-I 0,4 C 65 % 98 % 10 % 1017,7 hPa 0,0 l/m 0,2 km/h (0 Bft) 0,00 h 0,00 h 0,7 km/h (0 Bft)
24.11.2012 11:00 14,8 C 9,0 C 0,0 UV-I 0,8 C 65 % 98 % 21 % 1017,4 hPa 0,0 l/m 0,6 km/h (0 Bft) 0,00 h 0,00 h 1,2 km/h (1 Bft)
24.11.2012 12:00 15,0 C 9,6 C 0,0 UV-I 1,4 C 65 % 99 % 39 % 1016,6 hPa 0,0 l/m 1,5 km/h (1 Bft) 0,00 h 0,00 h 3,1 km/h (1 Bft)
24.11.2012 13:00 15,1 C 10,0 C 0,0 UV-I 1,0 C 65 % 98 % 28 % 1016,1 hPa 0,0 l/m 2,1 km/h (1 Bft) 0,00 h 0,00 h 2,7 km/h (1 Bft)
24.11.2012 14:00 15,2 C 10,3 C 0,0 UV-I 0,3 C 65 % 98 % 9 % 1015,5 hPa 0,0 l/m 0,6 km/h (0 Bft) 0,00 h 0,00 h 1,4 km/h (1 Bft)
24.11.2012 15:00 15,2 C 10,4 C 0,0 UV-I 0,0 C 65 % 97 % 1 % 1014,9 hPa 0,0 l/m 0,6 km/h (0 Bft) 0,00 h 0,00 h 0,9 km/h (0 Bft)
24.11.2012 16:00 15,1 C 10,0 C 0,0 UV-I 0,0 C 65 % 97 % 0 % 1014,6 hPa 0,0 l/m 0,0 km/h (0 Bft) 0,00 h 0,00 h 0,0 km/h (0 Bft)
24.11.2012 17:00 15,0 C 9,6 C 0,0 UV-I 0,0 C 65 % 97 % 0 % 1014,1 hPa 0,0 l/m 0,4 km/h (0 Bft) 0,00 h 0,10 h 0,8 km/h (0 Bft)
24.11.2012 18:00 15,0 C 9,5 C 0,0 UV-I 0,0 C 66 % 97 % 0 % 1013,3 hPa 0,0 l/m 0,4 km/h (0 Bft) 0,00 h 0,27 h 0,6 km/h (0 Bft)
24.11.2012 19:00 15,0 C 9,6 C 0,0 UV-I 0,0 C 66 % 97 % 0 % 1013,1 hPa 0,0 l/m 1,9 km/h (1 Bft) 0,00 h 0,10 h 3,3 km/h (1 Bft)
24.11.2012 20:00 15,0 C 9,6 C 0,0 UV-I 0,0 C 66 % 97 % 0 % 1011,9 hPa 0,2 l/m 4,7 km/h (1 Bft) 0,00 h 0,30 h 8,6 km/h (2 Bft)
24.11.2012 21:00 15,0 C 9,6 C 0,0 UV-I 0,0 C 66 % 97 % 0 % 1011,1 hPa 0,0 l/m 4,9 km/h (1 Bft) 0,00 h 0,00 h 7,3 km/h (2 Bft)
24.11.2012 22:00 14,8 C 9,7 C 0,0 UV-I 0,0 C 66 % 96 % 0 % 1009,9 hPa 0,0 l/m 6,9 km/h (2 Bft) 0,00 h 0,00 h 9,4 km/h (2 Bft)
24.11.2012 23:00 14,9 C 10,0 C 0,0 UV-I 0,0 C 65 % 95 % 0 % 1008,6 hPa 0,0 l/m 8,4 km/h (2 Bft) 0,00 h 0,00 h 12,4 km/h (3 Bft)
25.11.2012 00:00 15,0 C 10,1 C 0,0 UV-I 0,0 C 65 % 92 % 0 % 1007,6 hPa 0,0 l/m 10,2 km/h (2 Bft) 0,00 h 0,00 h 14,3 km/h (3 Bft)
25.11.2012 01:00 14,9 C 10,1 C 0,0 UV-I 0,0 C 64 % 92 % 0 % 1006,5 hPa 0,0 l/m 11,8 km/h (2 Bft) 0,00 h 0,00 h 16,4 km/h (3 Bft)
25.11.2012 02:00 14,9 C 10,5 C 0,0 UV-I 0,0 C 65 % 91 % 0 % 1005,4 hPa 0,0 l/m 11,3 km/h (2 Bft) 0,00 h 0,00 h 15,4 km/h (3 Bft)
25.11.2012 03:00 15,0 C 10,9 C 0,0 UV-I 0,0 C 65 % 90 % 0 % 1004,8 hPa 0,0 l/m 11,0 km/h (2 Bft) 0,00 h 0,00 h 14,5 km/h (3 Bft)
25.11.2012 04:00 15,0 C 11,6 C 0,0 UV-I 0,0 C 65 % 89 % 0 % 1003,7 hPa 0,0 l/m 7,9 km/h (2 Bft) 0,00 h 0,00 h 11,1 km/h (2 Bft)
25.11.2012 05:00 15,2 C 13,4 C 0,0 UV-I 0,0 C 64 % 81 % 0 % 1003,6 hPa 0,0 l/m 8,0 km/h (2 Bft) 0,00 h 0,00 h 11,9 km/h (2 Bft)
25.11.2012 06:00 15,3 C 14,2 C 0,0 UV-I 0,0 C 63 % 73 % 0 % 1003,8 hPa 0,0 l/m 12,3 km/h (3 Bft) 0,00 h 0,00 h 18,3 km/h (3 Bft)
25.11.2012 07:00 15,5 C 14,0 C 0,0 UV-I 0,0 C 61 % 72 % 0 % 1004,5 hPa 0,0 l/m 12,3 km/h (3 Bft) 0,00 h 0,00 h 16,7 km/h (3 Bft)
25.11.2012 08:00 15,6 C 13,6 C 0,0 UV-I 0,0 C 60 % 72 % 0 % 1005,1 hPa 0,0 l/m 15,7 km/h (3 Bft) 0,00 h 0,00 h 23,6 km/h (4 Bft)
25.11.2012 09:00 15,6 C 12,6 C 0,0 UV-I 0,0 C 59 % 74 % 0 % 1006,1 hPa 0,0 l/m 14,8 km/h (3 Bft) 0,00 h 0,00 h 20,8 km/h (4 Bft)
25.11.2012 10:00 15,6 C 12,3 C 0,1 UV-I 1,9 C 58 % 73 % 53 % 1006,9 hPa 0,0 l/m 17,6 km/h (3 Bft) 0,50 h 0,00 h 25,8 km/h (4 Bft)
25.11.2012 11:00 15,6 C 11,7 C 0,1 UV-I 0,2 C 55 % 69 % 5 % 1008,3 hPa 0,0 l/m 18,8 km/h (3 Bft) 0,00 h 0,00 h 24,2 km/h (4 Bft)
25.11.2012 12:00 15,6 C 11,6 C 0,2 UV-I 1,3 C 53 % 67 % 37 % 1008,6 hPa 0,0 l/m 18,3 km/h (3 Bft) 0,00 h 0,00 h 26,6 km/h (4 Bft)
25.11.2012 13:00 15,9 C 11,9 C 0,3 UV-I 2,1 C 51 % 63 % 60 % 1009,0 hPa 0,0 l/m 19,9 km/h (4 Bft) 0,13 h 0,00 h 25,9 km/h (4 Bft)
25.11.2012 14:00 16,7 C 11,7 C 0,2 UV-I 2,6 C 49 % 66 % 73 % 1009,9 hPa 0,0 l/m 17,3 km/h (3 Bft) 0,93 h 0,00 h 24,7 km/h (4 Bft)
25.11.2012 15:00 16,9 C 11,2 C 0,0 UV-I 0,1 C 48 % 69 % 3 % 1009,6 hPa 0,0 l/m 12,5 km/h (3 Bft) 0,00 h 0,00 h 16,3 km/h (3 Bft)
25.11.2012 16:00 16,3 C 10,7 C 0,0 UV-I 0,0 C 49 % 70 % 0 % 1010,4 hPa 0,0 l/m 9,1 km/h (2 Bft) 0,00 h 0,00 h 11,1 km/h (2 Bft)
25.11.2012 17:00 15,7 C 10,4 C 0,0 UV-I 0,0 C 50 % 71 % 0 % 1010,7 hPa 0,0 l/m 7,5 km/h (2 Bft) 0,00 h 0,00 h 9,2 km/h (2 Bft)
25.11.2012 18:00 15,4 C 10,1 C 0,0 UV-I 0,0 C 51 % 72 % 0 % 1010,9 hPa 0,0 l/m 8,1 km/h (2 Bft) 0,00 h 0,00 h 11,2 km/h (2 Bft)
25.11.2012 19:00 15,2 C 9,7 C 0,0 UV-I 0,0 C 52 % 75 % 0 % 1011,3 hPa 0,0 l/m 7,0 km/h (2 Bft) 0,00 h 0,00 h 11,2 km/h (2 Bft)
25.11.2012 20:00 15,2 C 9,1 C 0,0 UV-I 0,0 C 52 % 76 % 0 % 1011,3 hPa 0,0 l/m 5,3 km/h (1 Bft) 0,00 h 0,00 h 6,7 km/h (2 Bft)
25.11.2012 21:00 15,0 C 8,2 C 0,0 UV-I 0,0 C 53 % 79 % 0 % 1011,3 hPa 0,0 l/m 3,0 km/h (1 Bft) 0,00 h 0,00 h 5,4 km/h (1 Bft)
25.11.2012 22:00 15,0 C 7,9 C 0,0 UV-I 0,0 C 53 % 81 % 0 % 1011,2 hPa 0,0 l/m 2,8 km/h (1 Bft) 0,00 h 0,00 h 4,6 km/h (1 Bft)
25.11.2012 23:00 14,8 C 7,8 C 0,0 UV-I 0,0 C 53 % 83 % 0 % 1011,2 hPa 0,0 l/m 4,2 km/h (1 Bft) 0,00 h 0,00 h 6,5 km/h (2 Bft)
Min-Datum _ 23.11.12 19.11.12 19.11.12 19.11.12 22.11.12 22.11.12 19.11.12 25.11.12 - 19.11.12 - - 19.11.12
_ Min-Zeit 05:38 03:06 00:00 00:00 15:22 14:22 00:00 05:00 - 00:00 - - 00:00
Minimum _ 12,9 C 1,3 C 0,0 UV-I 0,0 C 48 % 63 % 0 % 1003,4 hPa - 0,0 km/h (0 Bft) - - 0,0 km/h (0 Bft)
Max-Datum _ 25.11.12 25.11.12 19.11.12 22.11.12 24.11.12 19.11.12 19.11.12 22.11.12 23.11.12 25.11.12 19.11.12 19.11.12 25.11.12
_ Max-Zeit 14:54 05:58 11:50 10:52 17:46 09:36 11:32 10:20 13:00 10:58 11:28 03:12 08:36
Maximum _ 17,0 C 14,3 C 0,5 UV-I 7,1 C 66 % 99 % 100 % 1022,0 hPa 1,6 l/m 27,3 km/h
S (4 Bft)
0,03 h 0,03 h 61,4 km/h
O-SO (7 Bft)
Durchschnitt _ 14,5 C 8,0 C 0,0 UV-I 0,4 C 59 % 90 % 10 % 1015,0 hPa #12,0 l/m 6,6 km/h (2 Bft) #13:40 h #13:06 h 9,3 km/h (2 Bft)
© 2012 W. Hausmann